sat.trackr.live / text

‹ back to catalog

ONEWEB-0701

NORAD 61607 · 2024-188P

PAYLOAD ACTIVE UNKNOWN

§ Identity

Operator
Country
UK
Launch date
2024-10-20
Launch site
AFWTR
Launch vehicle
Mass (kg)
RCS (m²)

Purposes: comms

External: N2YO · Heavens-Above · Gunter

§ Orbital elements

Epoch: 2026-05-25T04:10:17.534784Z

Period
109.89 min
Inclination
87.8854°
Eccentricity
0.0000987
Mean motion
13.10370030 rev/d
Perigee alt
1,221.0 km
Apogee alt
1,222.5 km
Semi-major
7,599.9 km
B*
7.6802e-4
RAAN
40.8460°
Arg perigee
80.8279°
Mean anomaly
279.2960°
Rev number
8,029

§ Raw data

ONEWEB-07011 61607U 24188P   26145.17381406  .00000281  00000+0  76802-3 0  99972 61607  87.8854  40.8460 0000987  80.8279 279.2960 13.10370030 80294

JSON: /api/v1/satellites/61607 · /tle

For live sub-satellite position, see the globe view (requires WebGL).

§ Visibility from observer

Set your observer location to see the next 7 days of passes ≥ 10°. The values pass through the URL so the page stays shareable.

No JS? Fill the form by hand. The geolocation button needs JavaScript.